contact:dominique.lefevre@mio.osupytheas.fr, maurice.libes@osupytheas.fr, didier.mallarino@osupytheas.fr
Project:EMSO http://www.emso-fr.org/EMSO-France
Depth: 2436.0 m
Title:EMSO Ligure Ouest : Data MII capteur MICROCAT
DateTime_Computer,Latitude,Longitude,Temperature,Conductivity,Pressure,DateTime_Instrument
DateTime_Computer,Latitude,Longitude,degC,S m-1,dbar,DateTime_Instrument
2021-10-01T00:01:06Z,42.805,6.029,13.2989,4.60004,2470.413,2021-10-01T02:02:28Z
2021-10-01T00:04:09Z,42.805,6.029,13.2988,4.60006,2470.39,2021-10-01T02:05:31Z
2021-10-01T00:07:12Z,42.805,6.029,13.2992,4.60007,2470.413,2021-10-01T02:08:34Z
2021-10-01T00:10:15Z,42.805,6.029,13.2985,4.60005,2470.39,2021-10-01T02:11:37Z
2021-10-01T00:13:18Z,42.805,6.029,13.2990,4.60004,2470.413,2021-10-01T02:14:41Z
2021-10-01T00:16:21Z,42.805,6.029,13.2990,4.60006,2470.39,2021-10-01T02:17:44Z
2021-10-01T00:19:24Z,42.805,6.029,13.2988,4.60004,2470.404,2021-10-01T02:20:47Z
2021-10-01T00:22:27Z,42.805,6.029,13.2988,4.60003,2470.427,2021-10-01T02:23:50Z
2021-10-01T00:25:31Z,42.805,6.029,13.2986,4.60003,2470.404,2021-10-01T02:26:53Z
2021-10-01T00:28:34Z,42.805,6.029,13.2988,4.60007,2470.404,2021-10-01T02:29:56Z
2021-10-01T00:31:37Z,42.805,6.029,13.2986,4.60009,2470.413,2021-10-01T02:32:59Z
2021-10-01T00:34:40Z,42.805,6.029,13.2990,4.60006,2470.427,2021-10-01T02:36:02Z
2021-10-01T00:37:43Z,42.805,6.029,13.2989,4.60006,2470.404,2021-10-01T02:39:05Z
2021-10-01T00:40:46Z,42.805,6.029,13.2992,4.60007,2470.427,2021-10-01T02:42:09Z
2021-10-01T00:43:49Z,42.805,6.029,13.2990,4.60008,2470.413,2021-10-01T02:45:12Z
2021-10-01T00:46:52Z,42.805,6.029,13.2989,4.60006,2470.427,2021-10-01T02:48:15Z
2021-10-01T00:49:56Z,42.805,6.029,13.2991,4.60007,2470.39,2021-10-01T02:51:18Z
2021-10-01T00:52:59Z,42.805,6.029,13.2990,4.60007,2470.39,2021-10-01T02:54:21Z
2021-10-01T00:56:02Z,42.805,6.029,13.2990,4.60008,2470.39,2021-10-01T02:57:24Z
2021-10-01T00:59:05Z,42.805,6.029,13.2988,4.60007,2470.404,2021-10-01T03:00:27Z
2021-10-01T01:02:08Z,42.805,6.029,13.2990,4.60007,2470.404,2021-10-01T03:03:30Z
2021-10-01T01:05:11Z,42.805,6.029,13.2991,4.60005,2470.39,2021-10-01T03:06:34Z
2021-10-01T01:08:14Z,42.805,6.029,13.2986,4.60005,2470.39,2021-10-01T03:09:37Z
2021-10-01T01:11:17Z,42.805,6.029,13.2987,4.60006,2470.404,2021-10-01T03:12:40Z
2021-10-01T01:14:20Z,42.805,6.029,13.2990,4.60009,2470.39,2021-10-01T03:15:43Z
2021-10-01T01:17:24Z,42.805,6.029,13.2992,4.60007,2470.413,2021-10-01T03:18:46Z
2021-10-01T01:20:27Z,42.805,6.029,13.2991,4.60004,2470.427,2021-10-01T03:21:49Z
2021-10-01T01:23:30Z,42.805,6.029,13.2991,4.60007,2470.437,2021-10-01T03:24:52Z
2021-10-01T01:26:33Z,42.805,6.029,13.2989,4.60006,2470.39,2021-10-01T03:27:55Z
2021-10-01T01:29:36Z,42.805,6.029,13.2991,4.60006,2470.413,2021-10-01T03:30:58Z
2021-10-01T01:32:39Z,42.805,6.029,13.2987,4.60006,2470.404,2021-10-01T03:34:02Z
2021-10-01T01:35:42Z,42.805,6.029,13.2984,4.60006,2470.427,2021-10-01T03:37:05Z
2021-10-01T01:38:45Z,42.805,6.029,13.2990,4.60003,2470.399,2021-10-01T03:40:08Z
2021-10-01T01:41:49Z,42.805,6.029,13.2992,4.60004,2470.437,2021-10-01T03:43:11Z
2021-10-01T01:44:52Z,42.805,6.029,13.2987,4.60008,2470.413,2021-10-01T03:46:14Z
2021-10-01T01:47:55Z,42.805,6.029,13.2989,4.60007,2470.413,2021-10-01T03:49:17Z
2021-10-01T01:50:58Z,42.805,6.029,13.2990,4.60007,2470.413,2021-10-01T03:52:20Z
2021-10-01T01:54:01Z,42.805,6.029,13.2991,4.60006,2470.413,2021-10-01T03:55:23Z
2021-10-01T01:57:04Z,42.805,6.029,13.2993,4.60006,2470.39,2021-10-01T03:58:27Z
2021-10-01T02:00:07Z,42.805,6.029,13.2983,4.60006,2470.413,2021-10-01T04:01:30Z
2021-10-01T02:03:10Z,42.805,6.029,13.2993,4.60008,2470.38,2021-10-01T04:04:33Z
2021-10-01T02:06:13Z,42.805,6.029,13.2988,4.60006,2470.437,2021-10-01T04:07:36Z
2021-10-01T02:09:17Z,42.805,6.029,13.2989,4.60006,2470.413,2021-10-01T04:10:39Z
2021-10-01T02:12:20Z,42.805,6.029,13.2989,4.60003,2470.413,2021-10-01T04:13:42Z
2021-10-01T02:15:23Z,42.805,6.029,13.2991,4.60007,2470.39,2021-10-01T04:16:45Z
2021-10-01T02:18:26Z,42.805,6.029,13.2990,4.60006,2470.413,2021-10-01T04:19:48Z
2021-10-01T02:21:29Z,42.805,6.029,13.2991,4.60006,2470.427,2021-10-01T04:22:51Z
2021-10-01T02:24:32Z,42.805,6.029,13.2990,4.60005,2470.427,2021-10-01T04:25:55Z
2021-10-01T02:27:35Z,42.805,6.029,13.2990,4.60005,2470.413,2021-10-01T04:28:58Z
2021-10-01T02:30:38Z,42.805,6.029,13.2990,4.60004,2470.437,2021-10-01T04:32:01Z
2021-10-01T02:33:41Z,42.805,6.029,13.2990,4.60007,2470.427,2021-10-01T04:35:04Z
2021-10-01T02:36:45Z,42.805,6.029,13.2991,4.60006,2470.45,2021-10-01T04:38:07Z
2021-10-01T02:39:48Z,42.805,6.029,13.2990,4.60005,2470.437,2021-10-01T04:41:10Z
2021-10-01T02:42:51Z,42.805,6.029,13.2990,4.60004,2470.427,2021-10-01T04:44:13Z
2021-10-01T02:45:54Z,42.805,6.029,13.2989,4.60005,2470.413,2021-10-01T04:47:16Z
2021-10-01T02:48:57Z,42.805,6.029,13.2991,4.60005,2470.413,2021-10-01T04:50:20Z
2021-10-01T02:52:00Z,42.805,6.029,13.2990,4.60009,2470.437,2021-10-01T04:53:23Z
2021-10-01T02:55:03Z,42.805,6.029,13.2991,4.60006,2470.413,2021-10-01T04:56:26Z
2021-10-01T02:58:06Z,42.805,6.029,13.2991,4.60005,2470.413,2021-10-01T04:59:29Z
2021-10-01T03:01:10Z,42.805,6.029,13.2988,4.60004,2470.474,2021-10-01T05:02:32Z
2021-10-01T03:04:13Z,42.805,6.029,13.2987,4.60005,2470.404,2021-10-01T05:05:35Z
2021-10-01T03:07:16Z,42.805,6.029,13.2987,4.60005,2470.423,2021-10-01T05:08:38Z
2021-10-01T03:10:19Z,42.805,6.029,13.2989,4.60004,2470.413,2021-10-01T05:11:41Z
2021-10-01T03:13:22Z,42.805,6.029,13.2991,4.60005,2470.427,2021-10-01T05:14:45Z
2021-10-01T03:16:25Z,42.805,6.029,13.2991,4.60005,2470.413,2021-10-01T05:17:48Z
2021-10-01T03:19:28Z,42.805,6.029,13.2987,4.60004,2470.427,2021-10-01T05:20:51Z
2021-10-01T03:22:31Z,42.805,6.029,13.2990,4.60006,2470.437,2021-10-01T05:23:54Z
2021-10-01T03:25:35Z,42.805,6.029,13.2990,4.60005,2470.404,2021-10-01T05:26:57Z
2021-10-01T03:28:38Z,42.805,6.029,13.2987,4.60004,2470.413,2021-10-01T05:30:00Z
2021-10-01T03:31:41Z,42.805,6.029,13.2990,4.60004,2470.437,2021-10-01T05:33:03Z
2021-10-01T03:34:44Z,42.805,6.029,13.2989,4.60005,2470.413,2021-10-01T05:36:06Z
2021-10-01T03:37:47Z,42.805,6.029,13.2991,4.60005,2470.427,2021-10-01T05:39:09Z
2021-10-01T03:40:50Z,42.805,6.029,13.2991,4.60005,2470.437,2021-10-01T05:42:13Z
2021-10-01T03:43:53Z,42.805,6.029,13.2988,4.60006,2470.45,2021-10-01T05:45:16Z
2021-10-01T03:46:56Z,42.805,6.029,13.2989,4.60006,2470.39,2021-10-01T05:48:19Z
2021-10-01T03:49:59Z,42.805,6.029,13.2988,4.60007,2470.413,2021-10-01T05:51:22Z
2021-10-01T03:53:03Z,42.805,6.029,13.2987,4.60004,2470.413,2021-10-01T05:54:25Z
2021-10-01T03:56:06Z,42.805,6.029,13.2990,4.60005,2470.413,2021-10-01T05:57:28Z
2021-10-01T03:59:09Z,42.805,6.029,13.2990,4.60005,2470.413,2021-10-01T06:00:31Z
2021-10-01T04:02:12Z,42.805,6.029,13.2989,4.60006,2470.427,2021-10-01T06:03:34Z
2021-10-01T04:05:15Z,42.805,6.029,13.2989,4.60003,2470.413,2021-10-01T06:06:37Z
2021-10-01T04:08:19Z,42.805,6.029,13.2986,4.60004,2470.413,2021-10-01T06:09:41Z
2021-10-01T04:11:22Z,42.805,6.029,13.2988,4.60005,2470.427,2021-10-01T06:12:44Z
2021-10-01T04:14:25Z,42.805,6.029,13.2991,4.60004,2470.413,2021-10-01T06:15:48Z
2021-10-01T04:17:28Z,42.805,6.029,13.2989,4.60003,2470.413,2021-10-01T06:18:51Z
2021-10-01T04:20:31Z,42.805,6.029,13.2988,4.60004,2470.413,2021-10-01T06:21:54Z
2021-10-01T04:23:34Z,42.805,6.029,13.2988,4.60006,2470.404,2021-10-01T06:24:57Z
2021-10-01T04:26:38Z,42.805,6.029,13.2989,4.60004,2470.437,2021-10-01T06:28:00Z
2021-10-01T04:29:41Z,42.805,6.029,13.2990,4.60005,2470.45,2021-10-01T06:31:03Z
2021-10-01T04:32:44Z,42.805,6.029,13.2989,4.60003,2470.427,2021-10-01T06:34:06Z
2021-10-01T04:35:47Z,42.805,6.029,13.2989,4.60006,2470.437,2021-10-01T06:37:09Z
2021-10-01T04:38:50Z,42.805,6.029,13.2990,4.60004,2470.427,2021-10-01T06:40:12Z
2021-10-01T04:41:53Z,42.805,6.029,13.2991,4.60004,2470.427,2021-10-01T06:43:16Z
2021-10-01T04:44:56Z,42.805,6.029,13.2990,4.60007,2470.413,2021-10-01T06:46:19Z
2021-10-01T04:48:00Z,42.805,6.029,13.2986,4.60003,2470.413,2021-10-01T06:49:22Z
2021-10-01T04:51:03Z,42.805,6.029,13.2992,4.60005,2470.39,2021-10-01T06:52:25Z
2021-10-01T04:54:06Z,42.805,6.029,13.2991,4.60006,2470.427,2021-10-01T06:55:28Z
2021-10-01T04:57:09Z,42.805,6.029,13.2987,4.60006,2470.39,2021-10-01T06:58:31Z
2021-10-01T05:00:12Z,42.805,6.029,13.2990,4.60004,2470.404,2021-10-01T07:01:34Z
2021-10-01T05:03:15Z,42.805,6.029,13.2988,4.60003,2470.39,2021-10-01T07:04:37Z
2021-10-01T05:06:18Z,42.805,6.029,13.2990,4.60003,2470.413,2021-10-01T07:07:41Z
2021-10-01T05:09:21Z,42.805,6.029,13.2990,4.60005,2470.413,2021-10-01T07:10:44Z
2021-10-01T05:12:24Z,42.805,6.029,13.2987,4.60005,2470.404,2021-10-01T07:13:47Z
2021-10-01T05:15:28Z,42.805,6.029,13.2989,4.60003,2470.413,2021-10-01T07:16:50Z
2021-10-01T05:18:31Z,42.805,6.029,13.2987,4.60004,2470.404,2021-10-01T07:19:53Z
2021-10-01T05:21:34Z,42.805,6.029,13.2987,4.60003,2470.427,2021-10-01T07:22:56Z
2021-10-01T05:24:37Z,42.805,6.029,13.2988,4.60003,2470.39,2021-10-01T07:25:59Z
2021-10-01T05:27:40Z,42.805,6.029,13.2989,4.60004,2470.413,2021-10-01T07:29:02Z
2021-10-01T05:30:43Z,42.805,6.029,13.2991,4.60005,2470.413,2021-10-01T07:32:06Z
2021-10-01T05:33:46Z,42.805,6.029,13.2988,4.60003,2470.39,2021-10-01T07:35:09Z
2021-10-01T05:36:49Z,42.805,6.029,13.2992,4.60004,2470.45,2021-10-01T07:38:12Z
2021-10-01T05:39:53Z,42.805,6.029,13.2990,4.60003,2470.437,2021-10-01T07:41:15Z
2021-10-01T05:42:56Z,42.805,6.029,13.2991,4.60006,2470.404,2021-10-01T07:44:18Z
2021-10-01T05:45:59Z,42.805,6.029,13.2990,4.60004,2470.427,2021-10-01T07:47:21Z
2021-10-01T05:49:02Z,42.805,6.029,13.2987,4.60003,2470.427,2021-10-01T07:50:24Z
2021-10-01T05:52:05Z,42.805,6.029,13.2990,4.60006,2470.413,2021-10-01T07:53:27Z
2021-10-01T05:55:08Z,42.805,6.029,13.2992,4.60004,2470.413,2021-10-01T07:56:31Z
2021-10-01T05:58:11Z,42.805,6.029,13.2989,4.60006,2470.427,2021-10-01T07:59:34Z
2021-10-01T06:01:14Z,42.805,6.029,13.2986,4.60006,2470.427,2021-10-01T08:02:37Z
2021-10-01T06:04:17Z,42.805,6.029,13.2991,4.60005,2470.427,2021-10-01T08:05:40Z
2021-10-01T06:07:21Z,42.805,6.029,13.2986,4.60004,2470.413,2021-10-01T08:08:43Z
2021-10-01T06:10:24Z,42.805,6.029,13.2990,4.60003,2470.39,2021-10-01T08:11:46Z
2021-10-01T06:13:27Z,42.805,6.029,13.2991,4.60003,2470.45,2021-10-01T08:14:49Z
2021-10-01T06:16:30Z,42.805,6.029,13.2986,4.60005,2470.437,2021-10-01T08:17:52Z
2021-10-01T06:19:33Z,42.805,6.029,13.2990,4.60003,2470.413,2021-10-01T08:20:55Z
2021-10-01T06:22:36Z,42.805,6.029,13.2990,4.60003,2470.39,2021-10-01T08:23:59Z
2021-10-01T06:25:39Z,42.805,6.029,13.2989,4.60003,2470.404,2021-10-01T08:27:02Z
2021-10-01T06:28:42Z,42.805,6.029,13.2986,4.60003,2470.413,2021-10-01T08:30:05Z
2021-10-01T06:31:46Z,42.805,6.029,13.2986,4.60005,2470.413,2021-10-01T08:33:08Z
2021-10-01T06:34:49Z,42.805,6.029,13.2990,4.60004,2470.413,2021-10-01T08:36:11Z
2021-10-01T06:37:52Z,42.805,6.029,13.2989,4.60008,2470.437,2021-10-01T08:39:14Z
2021-10-01T06:40:55Z,42.805,6.029,13.2991,4.60006,2470.413,2021-10-01T08:42:17Z
2021-10-01T06:43:58Z,42.805,6.029,13.2991,4.60003,2470.39,2021-10-01T08:45:20Z
2021-10-01T06:47:01Z,42.805,6.029,13.2990,4.60005,2470.413,2021-10-01T08:48:23Z
2021-10-01T06:50:04Z,42.805,6.029,13.2988,4.60003,2470.38,2021-10-01T08:51:27Z
2021-10-01T06:53:07Z,42.805,6.029,13.2986,4.60003,2470.427,2021-10-01T08:54:30Z
2021-10-01T06:56:10Z,42.805,6.029,13.2987,4.60006,2470.404,2021-10-01T08:57:33Z
2021-10-01T06:59:14Z,42.805,6.029,13.2990,4.60004,2470.357,2021-10-01T09:00:36Z
2021-10-01T07:02:17Z,42.805,6.029,13.2989,4.60003,2470.39,2021-10-01T09:03:39Z
2021-10-01T07:05:20Z,42.805,6.029,13.2991,4.60003,2470.366,2021-10-01T09:06:42Z
2021-10-01T07:08:23Z,42.805,6.029,13.2986,4.60005,2470.404,2021-10-01T09:09:45Z
2021-10-01T07:11:26Z,42.805,6.029,13.2990,4.60003,2470.427,2021-10-01T09:12:48Z
2021-10-01T07:14:29Z,42.805,6.029,13.2988,4.60004,2470.404,2021-10-01T09:15:51Z
2021-10-01T07:17:32Z,42.805,6.029,13.2990,4.60003,2470.413,2021-10-01T09:18:55Z
2021-10-01T07:20:35Z,42.805,6.029,13.2986,4.60003,2470.427,2021-10-01T09:21:58Z
2021-10-01T07:23:39Z,42.805,6.029,13.2991,4.60003,2470.404,2021-10-01T09:25:01Z
2021-10-01T07:26:42Z,42.805,6.029,13.2990,4.60006,2470.427,2021-10-01T09:28:04Z
2021-10-01T07:29:45Z,42.805,6.029,13.2991,4.60006,2470.39,2021-10-01T09:31:07Z
2021-10-01T07:32:48Z,42.805,6.029,13.2990,4.60009,2470.474,2021-10-01T09:34:10Z
2021-10-01T07:35:51Z,42.805,6.029,13.2989,4.60009,2470.39,2021-10-01T09:37:13Z
2021-10-01T07:38:54Z,42.805,6.029,13.2990,4.60003,2470.366,2021-10-01T09:40:16Z
2021-10-01T07:41:57Z,42.805,6.029,13.2993,4.60003,2470.404,2021-10-01T09:43:20Z
2021-10-01T07:45:00Z,42.805,6.029,13.2988,4.60003,2470.404,2021-10-01T09:46:23Z
2021-10-01T07:48:03Z,42.805,6.029,13.2990,4.60005,2470.39,2021-10-01T09:49:26Z
2021-10-01T07:51:07Z,42.805,6.029,13.2989,4.60006,2470.413,2021-10-01T09:52:29Z
2021-10-01T07:54:10Z,42.805,6.029,13.2990,4.60004,2470.404,2021-10-01T09:55:32Z
2021-10-01T07:57:13Z,42.805,6.029,13.2991,4.60004,2470.427,2021-10-01T09:58:35Z
2021-10-01T08:00:16Z,42.805,6.029,13.2988,4.60004,2470.39,2021-10-01T10:01:38Z
2021-10-01T08:03:19Z,42.805,6.029,13.2986,4.60006,2470.366,2021-10-01T10:04:41Z
2021-10-01T08:06:22Z,42.805,6.029,13.2993,4.60005,2470.38,2021-10-01T10:07:44Z
2021-10-01T08:09:25Z,42.805,6.029,13.2986,4.60004,2470.39,2021-10-01T10:10:48Z
2021-10-01T08:12:28Z,42.805,6.029,13.2989,4.60005,2470.366,2021-10-01T10:13:51Z
2021-10-01T08:15:32Z,42.805,6.029,13.2988,4.60008,2470.39,2021-10-01T10:16:54Z
2021-10-01T08:18:35Z,42.805,6.029,13.2991,4.60004,2470.38,2021-10-01T10:19:57Z
2021-10-01T08:21:38Z,42.805,6.029,13.2990,4.60004,2470.413,2021-10-01T10:23:00Z
2021-10-01T08:24:41Z,42.805,6.029,13.2988,4.60005,2470.404,2021-10-01T10:26:03Z
2021-10-01T08:27:44Z,42.805,6.029,13.2985,4.60004,2470.39,2021-10-01T10:29:06Z
2021-10-01T08:30:47Z,42.805,6.029,13.2985,4.60008,2470.39,2021-10-01T10:32:09Z
2021-10-01T08:33:50Z,42.805,6.029,13.2989,4.60004,2470.353,2021-10-01T10:35:13Z
2021-10-01T08:36:53Z,42.805,6.029,13.2992,4.60003,2470.366,2021-10-01T10:38:16Z
2021-10-01T08:39:57Z,42.805,6.029,13.2992,4.60005,2470.404,2021-10-01T10:41:19Z
2021-10-01T08:43:00Z,42.805,6.029,13.2991,4.60004,2470.357,2021-10-01T10:44:22Z
2021-10-01T08:46:03Z,42.805,6.029,13.2990,4.60005,2470.427,2021-10-01T10:47:25Z
2021-10-01T08:49:06Z,42.805,6.029,13.2986,4.60004,2470.39,2021-10-01T10:50:28Z
2021-10-01T08:52:09Z,42.805,6.029,13.2985,4.60003,2470.366,2021-10-01T10:53:31Z
2021-10-01T08:55:12Z,42.805,6.029,13.2991,4.60004,2470.39,2021-10-01T10:56:34Z
2021-10-01T08:58:15Z,42.805,6.029,13.2990,4.60003,2470.38,2021-10-01T10:59:38Z
2021-10-01T09:01:18Z,42.805,6.029,13.2988,4.60005,2470.357,2021-10-01T11:02:41Z
2021-10-01T09:04:22Z,42.805,6.029,13.2991,4.60005,2470.357,2021-10-01T11:05:44Z
2021-10-01T09:07:25Z,42.805,6.029,13.2989,4.60005,2470.38,2021-10-01T11:08:47Z
2021-10-01T09:10:28Z,42.805,6.029,13.2989,4.60003,2470.39,2021-10-01T11:11:50Z
2021-10-01T09:13:31Z,42.805,6.029,13.2990,4.60008,2470.39,2021-10-01T11:14:53Z
2021-10-01T09:16:34Z,42.805,6.029,13.2987,4.60006,2470.404,2021-10-01T11:17:56Z
2021-10-01T09:19:37Z,42.805,6.029,13.2991,4.60005,2470.38,2021-10-01T11:20:59Z
2021-10-01T09:22:40Z,42.805,6.029,13.2987,4.60005,2470.366,2021-10-01T11:24:03Z
2021-10-01T09:25:43Z,42.805,6.029,13.2991,4.60005,2470.376,2021-10-01T11:27:06Z
2021-10-01T09:28:47Z,42.805,6.029,13.2991,4.60004,2470.343,2021-10-01T11:30:09Z
2021-10-01T09:31:50Z,42.805,6.029,13.2990,4.60006,2470.413,2021-10-01T11:33:12Z
2021-10-01T09:34:53Z,42.805,6.029,13.2992,4.60004,2470.39,2021-10-01T11:36:15Z
2021-10-01T09:37:56Z,42.805,6.029,13.2991,4.60005,2470.38,2021-10-01T11:39:18Z
2021-10-01T09:40:59Z,42.805,6.029,13.2990,4.60007,2470.343,2021-10-01T11:42:21Z
2021-10-01T09:44:02Z,42.805,6.029,13.2984,4.60004,2470.39,2021-10-01T11:45:24Z
2021-10-01T09:47:05Z,42.805,6.029,13.2987,4.60007,2470.366,2021-10-01T11:48:28Z
2021-10-01T09:50:08Z,42.805,6.029,13.2991,4.60003,2470.366,2021-10-01T11:51:31Z
2021-10-01T09:53:12Z,42.805,6.029,13.2988,4.60003,2470.38,2021-10-01T11:54:34Z
2021-10-01T09:56:15Z,42.805,6.029,13.2990,4.60005,2470.39,2021-10-01T11:57:37Z
2021-10-01T09:59:18Z,42.805,6.029,13.2990,4.60007,2470.427,2021-10-01T12:00:40Z
2021-10-01T10:02:21Z,42.805,6.029,13.2991,4.60006,2470.38,2021-10-01T12:03:43Z
2021-10-01T10:05:24Z,42.805,6.029,13.2988,4.60007,2470.39,2021-10-01T12:06:46Z
2021-10-01T10:08:27Z,42.805,6.029,13.2986,4.60004,2470.366,2021-10-01T12:09:49Z
2021-10-01T10:11:30Z,42.805,6.029,13.2993,4.60004,2470.404,2021-10-01T12:12:53Z
2021-10-01T10:14:33Z,42.805,6.029,13.2986,4.60005,2470.39,2021-10-01T12:15:56Z
2021-10-01T10:17:37Z,42.805,6.029,13.2989,4.60003,2470.366,2021-10-01T12:18:59Z
2021-10-01T10:20:40Z,42.805,6.029,13.2991,4.60003,2470.413,2021-10-01T12:22:02Z
2021-10-01T10:23:43Z,42.805,6.029,13.2990,4.60003,2470.404,2021-10-01T12:25:05Z
2021-10-01T10:26:46Z,42.805,6.029,13.2990,4.60005,2470.427,2021-10-01T12:28:08Z
2021-10-01T10:29:49Z,42.805,6.029,13.2986,4.60004,2470.404,2021-10-01T12:31:11Z
2021-10-01T10:32:52Z,42.805,6.029,13.2987,4.60003,2470.404,2021-10-01T12:34:14Z
2021-10-01T10:35:55Z,42.805,6.029,13.2990,4.60003,2470.404,2021-10-01T12:37:18Z
2021-10-01T10:38:58Z,42.805,6.029,13.2990,4.60004,2470.39,2021-10-01T12:40:21Z
2021-10-01T10:42:01Z,42.805,6.029,13.2986,4.60003,2470.413,2021-10-01T12:43:24Z
2021-10-01T10:45:05Z,42.805,6.029,13.2988,4.60003,2470.404,2021-10-01T12:46:27Z
2021-10-01T10:48:08Z,42.805,6.029,13.2990,4.60006,2470.413,2021-10-01T12:49:30Z
2021-10-01T10:51:11Z,42.805,6.029,13.2986,4.60004,2470.39,2021-10-01T12:52:33Z
2021-10-01T10:54:14Z,42.805,6.029,13.2986,4.60007,2470.366,2021-10-01T12:55:36Z
2021-10-01T10:57:17Z,42.805,6.029,13.2991,4.60010,2470.38,2021-10-01T12:58:39Z
2021-10-01T11:00:20Z,42.805,6.029,13.2987,4.60004,2470.366,2021-10-01T13:01:43Z
2021-10-01T11:03:23Z,42.805,6.029,13.2988,4.60006,2470.39,2021-10-01T13:04:46Z
2021-10-01T11:06:26Z,42.805,6.029,13.2992,4.60006,2470.413,2021-10-01T13:07:49Z
2021-10-01T11:09:30Z,42.805,6.029,13.2988,4.60004,2470.38,2021-10-01T13:10:52Z
2021-10-01T11:12:33Z,42.805,6.029,13.2990,4.60006,2470.39,2021-10-01T13:13:55Z
2021-10-01T11:15:36Z,42.805,6.029,13.2987,4.60005,2470.427,2021-10-01T13:16:58Z
2021-10-01T11:18:39Z,42.805,6.029,13.2988,4.60004,2470.39,2021-10-01T13:20:01Z
2021-10-01T11:21:42Z,42.805,6.029,13.2992,4.60005,2470.413,2021-10-01T13:23:04Z
2021-10-01T11:24:45Z,42.805,6.029,13.2989,4.60004,2470.404,2021-10-01T13:26:08Z
2021-10-01T11:27:48Z,42.805,6.029,13.2990,4.60006,2470.427,2021-10-01T13:29:11Z
2021-10-01T11:30:51Z,42.805,6.029,13.2990,4.60005,2470.413,2021-10-01T13:32:14Z
2021-10-01T11:33:55Z,42.805,6.029,13.2985,4.60003,2470.39,2021-10-01T13:35:17Z
2021-10-01T11:36:58Z,42.805,6.029,13.2989,4.60005,2470.39,2021-10-01T13:38:20Z
2021-10-01T11:40:01Z,42.805,6.029,13.2990,4.60007,2470.404,2021-10-01T13:41:23Z
2021-10-01T11:43:04Z,42.805,6.029,13.2990,4.60004,2470.399,2021-10-01T13:44:26Z
2021-10-01T11:46:07Z,42.805,6.029,13.2989,4.60004,2470.413,2021-10-01T13:47:29Z
2021-10-01T11:49:10Z,42.805,6.029,13.2988,4.60004,2470.404,2021-10-01T13:50:32Z
2021-10-01T11:52:13Z,42.805,6.029,13.2991,4.60006,2470.39,2021-10-01T13:53:36Z
2021-10-01T11:55:16Z,42.805,6.029,13.2991,4.60003,2470.427,2021-10-01T13:56:39Z
2021-10-01T11:58:20Z,42.805,6.029,13.2990,4.60009,2470.427,2021-10-01T13:59:42Z
2021-10-01T12:01:23Z,42.805,6.029,13.2991,4.60005,2470.413,2021-10-01T14:02:45Z
2021-10-01T12:04:26Z,42.805,6.029,13.2985,4.60009,2470.427,2021-10-01T14:05:48Z
2021-10-01T12:07:29Z,42.805,6.029,13.2987,4.60007,2470.413,2021-10-01T14:08:51Z
2021-10-01T12:10:32Z,42.805,6.029,13.2989,4.60004,2470.423,2021-10-01T14:11:54Z
2021-10-01T12:13:35Z,42.805,6.029,13.2990,4.60007,2470.413,2021-10-01T14:14:57Z
2021-10-01T12:16:38Z,42.805,6.029,13.2991,4.60004,2470.45,2021-10-01T14:18:01Z
2021-10-01T12:19:41Z,42.805,6.029,13.2991,4.60006,2470.45,2021-10-01T14:21:04Z
2021-10-01T12:22:44Z,42.805,6.029,13.2992,4.60006,2470.413,2021-10-01T14:24:07Z
2021-10-01T12:25:48Z,42.805,6.029,13.2988,4.60006,2470.437,2021-10-01T14:27:10Z
2021-10-01T12:28:51Z,42.805,6.029,13.2985,4.60005,2470.404,2021-10-01T14:30:13Z
2021-10-01T12:31:54Z,42.805,6.029,13.2992,4.60004,2470.413,2021-10-01T14:33:16Z
2021-10-01T12:34:57Z,42.805,6.029,13.2991,4.60009,2470.45,2021-10-01T14:36:19Z
2021-10-01T12:38:00Z,42.805,6.029,13.2989,4.60004,2470.413,2021-10-01T14:39:22Z
2021-10-01T12:41:03Z,42.805,6.029,13.2989,4.60007,2470.45,2021-10-01T14:42:26Z
2021-10-01T12:44:06Z,42.805,6.029,13.2990,4.60006,2470.437,2021-10-01T14:45:29Z
2021-10-01T12:47:09Z,42.805,6.029,13.2988,4.60006,2470.437,2021-10-01T14:48:32Z
2021-10-01T12:50:13Z,42.805,6.029,13.2987,4.60004,2470.46,2021-10-01T14:51:35Z
2021-10-01T12:53:16Z,42.805,6.029,13.2988,4.60006,2470.437,2021-10-01T14:54:38Z
2021-10-01T12:56:19Z,42.805,6.029,13.2990,4.60005,2470.437,2021-10-01T14:57:41Z
2021-10-01T12:59:22Z,42.805,6.029,13.2991,4.60004,2470.45,2021-10-01T15:00:44Z
2021-10-01T13:02:25Z,42.805,6.029,13.2991,4.60006,2470.413,2021-10-01T15:03:47Z
2021-10-01T13:05:28Z,42.805,6.029,13.2986,4.60005,2470.46,2021-10-01T15:06:51Z
2021-10-01T13:08:31Z,42.805,6.029,13.2991,4.60003,2470.427,2021-10-01T15:09:54Z
2021-10-01T13:11:34Z,42.805,6.029,13.2990,4.60008,2470.474,2021-10-01T15:12:57Z
2021-10-01T13:14:38Z,42.805,6.029,13.2990,4.60009,2470.46,2021-10-01T15:16:00Z
2021-10-01T13:17:41Z,42.805,6.029,13.2988,4.60006,2470.46,2021-10-01T15:19:03Z
2021-10-01T13:20:44Z,42.805,6.029,13.2992,4.60006,2470.46,2021-10-01T15:22:06Z
2021-10-01T13:23:47Z,42.805,6.029,13.2989,4.60007,2470.497,2021-10-01T15:25:09Z
2021-10-01T13:26:50Z,42.805,6.029,13.2991,4.60006,2470.45,2021-10-01T15:28:12Z
2021-10-01T13:29:53Z,42.805,6.029,13.2990,4.60005,2470.45,2021-10-01T15:31:15Z
2021-10-01T13:32:56Z,42.805,6.029,13.2984,4.60004,2470.474,2021-10-01T15:34:19Z
2021-10-01T13:35:59Z,42.805,6.029,13.2989,4.60005,2470.45,2021-10-01T15:37:22Z
2021-10-01T13:39:03Z,42.805,6.029,13.2990,4.60006,2470.46,2021-10-01T15:40:25Z
2021-10-01T13:42:06Z,42.805,6.029,13.2986,4.60004,2470.46,2021-10-01T15:43:28Z
2021-10-01T13:45:09Z,42.805,6.029,13.2988,4.60004,2470.413,2021-10-01T15:46:31Z
2021-10-01T13:48:12Z,42.805,6.029,13.2990,4.60005,2470.474,2021-10-01T15:49:34Z
2021-10-01T13:51:15Z,42.805,6.029,13.2989,4.60005,2470.497,2021-10-01T15:52:37Z
2021-10-01T13:54:18Z,42.805,6.029,13.2990,4.60007,2470.45,2021-10-01T15:55:40Z
2021-10-01T13:57:21Z,42.805,6.029,13.2988,4.60004,2470.46,2021-10-01T15:58:44Z
2021-10-01T14:00:24Z,42.805,6.029,13.2986,4.60007,2470.437,2021-10-01T16:01:47Z
2021-10-01T14:03:27Z,42.805,6.029,13.2989,4.60006,2470.483,2021-10-01T16:04:50Z
2021-10-01T14:06:31Z,42.805,6.029,13.2989,4.60006,2470.46,2021-10-01T16:07:53Z
2021-10-01T14:09:34Z,42.805,6.029,13.2985,4.60007,2470.46,2021-10-01T16:10:56Z
2021-10-01T14:12:37Z,42.805,6.029,13.2986,4.60003,2470.483,2021-10-01T16:13:59Z
2021-10-01T14:15:40Z,42.805,6.029,13.2986,4.60010,2470.497,2021-10-01T16:17:02Z
2021-10-01T14:18:43Z,42.805,6.029,13.2989,4.60006,2470.474,2021-10-01T16:20:05Z
2021-10-01T14:21:46Z,42.805,6.029,13.2990,4.60006,2470.483,2021-10-01T16:23:09Z
2021-10-01T14:24:49Z,42.805,6.029,13.2985,4.60005,2470.437,2021-10-01T16:26:12Z
2021-10-01T14:27:52Z,42.805,6.029,13.2985,4.60005,2470.474,2021-10-01T16:29:15Z
2021-10-01T14:30:56Z,42.805,6.029,13.2990,4.60007,2470.483,2021-10-01T16:32:18Z
2021-10-01T14:33:59Z,42.805,6.029,13.2991,4.60007,2470.474,2021-10-01T16:35:21Z
2021-10-01T14:37:02Z,42.805,6.029,13.2991,4.60005,2470.46,2021-10-01T16:38:24Z
2021-10-01T14:40:05Z,42.805,6.029,13.2989,4.60006,2470.497,2021-10-01T16:41:27Z
2021-10-01T14:43:08Z,42.805,6.029,13.2991,4.60005,2470.497,2021-10-01T16:44:30Z
2021-10-01T14:46:11Z,42.805,6.029,13.2987,4.60006,2470.497,2021-10-01T16:47:34Z
2021-10-01T14:49:14Z,42.805,6.029,13.2988,4.60005,2470.474,2021-10-01T16:50:37Z
2021-10-01T14:52:17Z,42.805,6.029,13.2990,4.60008,2470.46,2021-10-01T16:53:40Z
2021-10-01T14:55:21Z,42.805,6.029,13.2983,4.60005,2470.52,2021-10-01T16:56:43Z
2021-10-01T14:58:24Z,42.805,6.029,13.2986,4.60006,2470.507,2021-10-01T16:59:46Z
2021-10-01T15:01:27Z,42.805,6.029,13.2990,4.60004,2470.497,2021-10-01T17:02:49Z